This is the latest recevied weather packets stored in our database for station/object IT9FBN-3. If no packets are shown the sender has not sent any weather packets the latest 10 day(s).
| Time | Temp. | Humidity | Pressure | Rain* | Wind** | Luminosity | Snow |
|---|---|---|---|---|---|---|---|
| 1778034002 | 16.11° C | 59% | 1015.5 hPa | 0 mm | - | - | - |
| 1778033702 | 16.11° C | 58% | 1015.4 hPa | 0 mm | - | - | - |
| 1778033402 | 16.67° C | 57% | 1015.6 hPa | 0 mm | - | - | - |
| 1778033102 | 16.67° C | 55% | 1015.5 hPa | 0 mm | - | - | - |
| 1778032802 | 16.67° C | 54% | 1015.4 hPa | 0 mm | - | - | - |
| 1778032502 | 16.67° C | 55% | 1015.5 hPa | 0 mm | - | - | - |
| 1778032202 | 16.67° C | 56% | 1015.6 hPa | 0 mm | - | - | - |
| 1778031902 | 16.67° C | 52% | 1015.5 hPa | 0 mm | - | - | - |
| 1778031602 | 17.22° C | 50% | 1015.7 hPa | 0 mm | - | - | - |
| 1778031302 | 17.78° C | 48% | 1015.4 hPa | 0 mm | - | - | - |
| 1778031002 | 17.78° C | 47% | 1014.8 hPa | 0 mm | - | - | - |
| 1778030702 | 17.78° C | 48% | 1014.6 hPa | 0 mm | - | - | - |
| 1778030402 | 17.78° C | 48% | 1014.7 hPa | 0 mm | - | - | - |
| 1778030102 | 17.78° C | 48% | 1014.6 hPa | 0 mm | - | - | - |
| 1778029802 | 17.78° C | 48% | 1014.5 hPa | 0 mm | - | - | - |
| 1778029502 | 17.78° C | 48% | 1014.6 hPa | 0 mm | - | - | - |
| 1778029202 | 17.78° C | 48% | 1014.7 hPa | 0 mm | - | - | - |
| 1778028902 | 17.78° C | 47% | 1014.6 hPa | 0 mm | - | - | - |
| 1778028602 | 17.78° C | 47% | 1014.6 hPa | 0 mm | - | - | - |
| 1778028302 | 17.78° C | 47% | 1014.3 hPa | 0 mm | - | - | - |
| 1778028002 | 17.22° C | 47% | 1014.5 hPa | 0 mm | - | - | - |
| 1778027702 | 17.22° C | 48% | 1014.7 hPa | 0 mm | - | - | - |
| 1778027402 | 17.22° C | 48% | 1015 hPa | 0 mm | - | - | - |
| 1778027102 | 16.67° C | 49% | 1015.1 hPa | 0 mm | - | - | - |
| 1778026802 | 16.67° C | 52% | 1015.2 hPa | 0 mm | - | - | - |
* Rain latest hour (hover to see other rain measurements)
** Current wind speed in m/s (hover to see current wind gust speed)